Lapse_Rate
5.9 6.0 6.1 6.2 6.3 6.3 6.5 6.7 6.7 7.4 7.5 7.2 6.5 5.5 5.4 5.9 6.1 6.3 6.2 6.2 6.3 6.3 6.3 6.3 6.1 5.8 5.7 5.7 5.8 5.8 5.8 5.7 5.7 5.7 5.7 5.8 5.9 5.8
5.5 5.5 5.4 5.3 5.4 5.3 5.5 5.7 5.8 5.9 6.7 6.8 7.0 6.3 5.8 5.3 5.4 5.8 6.0 5.9 5.7 5.8 5.8 5.8 5.9 6.0 5.9 5.8 5.7 5.7 5.7 5.8 6.0 6.1 6.1 6.0 6.0 6.0
5.0 5.2 5.2 5.2 5.3 5.3 5.3 5.4 5.4 5.3 5.6 6.1 6.1 6.6 6.1 5.8 5.6 5.3 5.6 5.9 5.8 5.6 5.7 5.6 5.5 5.4 5.5 5.5 5.5 5.5 5.6 5.7 5.9 5.9 5.9 6.0 6.1 6.1
5.1 5.2 5.2 5.2 5.1 5.1 5.1 5.1 5.1 5.1 5.3 5.6 5.6 5.8 6.1 6.0 6.0 5.8 5.4 5.5 5.6 5.6 5.7 5.7 5.4 5.3 5.2 5.2 5.4 5.5 5.6 5.7 5.8 5.8 5.9 5.9 5.9 6.0
5.2 5.2 5.2 5.1 5.1 5.0 5.1 5.1 5.1 5.2 5.4 5.5 5.6 5.6 5.9 6.0 6.1 6.0 5.8 5.9 5.9 5.7 5.5 5.5 5.4 5.4 5.3 5.3 5.3 5.3 5.4 5.7 5.9 6.1 6.1 6.0 5.9 5.8
5.1 5.2 5.2 5.1 5.1 5.1 5.2 5.3 5.4 5.6 5.6 5.6 5.7 5.7 5.7 5.8 6.1 6.2 6.0 6.0 6.2 6.2 5.9 5.8 5.5 5.6 5.6 5.5 5.5 5.4 5.6 5.6 5.7 5.8 5.8 5.9 5.7 5.6
5.0 5.1 5.1 5.1 5.0 5.1 5.2 5.1 5.2 5.2 5.2 5.3 5.3 5.4 5.5 5.6 5.7 5.9 6.2 6.3 6.1 6.1 6.3 5.7 5.5 5.5 5.5 5.5 5.8 5.8 5.8 5.7 5.7 5.7 5.8 5.9 6.0 5.7
4.7 4.6 4.7 4.8 4.8 4.9 4.9 4.9 4.9 5.0 4.9 4.8 5.0 5.0 5.1 5.2 5.3 5.5 5.6 5.9 6.1 6.3 6.0 6.1 5.8 5.7 5.4 5.4 5.6 5.8 5.8 5.7 5.7 5.5 5.8 5.5 5.7 5.8
4.8 4.7 4.7 4.6 4.6 4.7 4.7 4.7 4.6 4.6 4.6 4.8 4.9 4.8 4.9 4.8 4.9 5.0 5.1 5.2 5.4 5.8 5.9 6.3 6.1 6.1 6.0 5.9 5.7 5.7 5.8 5.7 5.6 5.6 5.6 5.7 5.2 5.4
5.0 4.9 4.9 4.9 4.7 4.6 4.7 4.8 4.7 4.7 4.7 4.8 4.7 4.8 4.9 4.9 5.1 5.2 5.2 5.2 5.3 5.4 5.4 5.8 6.4 6.5 6.3 6.2 6.2 6.1 6.0 6.0 5.7 5.7 5.6 5.7 5.6 5.3
5.4 5.2 5.2 5.2 4.9 4.8 4.8 4.8 4.7 4.7 4.6 4.9 4.7 4.6 4.8 4.9 4.8 5.0 5.1 5.0 5.2 5.6 5.6 5.5 5.8 6.2 6.6 6.5 6.4 6.2 6.0 6.0 6.0 5.9 5.7 5.7 5.6 5.1
5.7 5.9 5.6 5.3 5.2 5.1 5.3 5.3 5.3 5.1 5.0 4.8 4.8 4.8 4.8 4.9 5.0 5.0 5.2 5.3 5.2 5.4 5.9 5.4 5.9 6.1 6.5 6.5 6.2 6.1 6.1 6.1 5.9 6.2 6.2 5.8 5.6 5.3
5.6 5.5 5.6 5.4 5.0 5.0 5.3 5.5 5.5 5.4 5.3 5.3 5.2 5.1 4.8 4.9 5.1 5.1 5.2 5.4 5.6 5.6 5.3 5.4 5.8 6.1 6.1 6.2 6.6 6.1 5.8 6.0 6.0 5.9 6.4 6.1 5.7 5.5
5.4 5.5 5.8 6.0 5.6 5.4 5.2 5.3 5.4 5.4 5.4 5.3 5.2 5.2 5.1 5.2 5.3 5.4 5.5 5.6 5.5 5.4 5.3 5.3 5.7 5.6 5.8 6.5 6.6 6.0 5.8 5.8 5.3 5.7 6.0 6.1 6.0 5.6
5.3 5.3 5.5 5.9 6.2 5.6 5.6 5.4 5.3 5.4 5.4 5.2 5.3 5.4 5.3 5.4 5.6 5.6 5.7 5.6 5.5 5.3 5.3 5.4 5.5 5.4 5.5 6.1 6.5 6.5 5.9 5.7 5.4 5.8 5.7 5.4 5.0 5.4
6.1 5.8 5.6 5.6 5.9 5.9 5.8 5.4 5.2 5.3 5.2 5.2 5.4 5.5 5.5 5.5 5.5 5.5 5.7 5.4 5.4 5.1 5.3 5.6 5.6 5.6 5.3 5.9 6.2 6.2 5.9 6.1 5.5 5.9 5.9 5.4 4.8 4.6
5.8 5.9 5.9 5.8 5.2 5.2 5.4 5.4 5.2 5.0 4.9 5.2 5.3 5.3 5.5 5.5 5.6 5.6 5.6 5.5 5.4 5.2 5.2 5.2 5.7 5.3 5.0 5.3 5.8 6.0 5.8 5.8 5.6 5.6 6.0 5.6 5.7 5.2
5.4 5.2 5.0 4.8 5.1 5.2 4.9 4.8 4.7 4.7 4.9 5.1 5.1 5.3 5.7 5.7 5.8 5.9 5.8 5.7 5.5 5.5 5.6 5.6 5.5 5.1 4.9 5.1 5.4 5.7 5.5 5.4 5.4 5.4 5.4 5.1 5.1 5.2
5.6 5.4 5.2 5.0 5.1 5.3 5.1 4.6 4.8 5.0 4.9 5.0 5.1 5.7 6.1 6.1 6.1 6.2 6.0 5.9 5.7 5.8 5.8 5.8 5.3 4.9 4.8 5.1 5.2 5.2 5.5 5.2 5.2 5.4 5.2 5.1 4.9 5.1
5.9 5.6 5.5 5.6 5.5 5.6 5.6 5.2 5.3 5.6 5.6 5.8 6.2 6.6 6.6 6.6 6.6 6.5 6.2 6.0 5.8 5.9 5.9 5.4 5.0 4.6 4.9 5.2 5.2 5.0 5.2 5.3 5.2 5.1 5.1 5.0 4.9 4.9
6.0 5.9 5.9 5.9 5.9 5.9 6.1 6.1 6.1 6.3 6.4 6.8 7.1 7.1 7.1 7.1 7.0 6.7 6.3 6.1 6.0 5.9 5.5 5.1 4.9 4.7 4.8 5.1 5.3 5.2 5.0 4.9 4.9 5.0 5.1 4.9 4.8 5.0
6.4 6.2 6.3 6.4 6.4 6.3 6.5 6.7 6.7 7.0 7.2 7.4 7.4 7.4 7.3 7.2 7.0 6.6 6.3 6.2 6.1 5.7 5.2 5.0 4.9 4.7 4.8 5.0 5.1 5.1 5.1 4.9 4.8 4.7 4.7 4.7 4.8 4.7
6.7 6.6 6.7 6.8 6.7 6.7 6.9 7.2 7.5 7.5 7.6 7.7 7.5 7.3 7.0 7.0 6.8 6.6 6.4 6.2 5.9 5.7 5.6 5.4 5.3 5.1 5.0 5.0 5.0 4.7 4.8 4.7 4.6 4.2 4.5 4.3 4.4 4.7
Wind_Speed
5 5 3 3 3 3 3 4 5 7 11 4 2 2 4 9 11 13 12 14 14 15 15 13 13 14 15 17 17 18 19 21 22 24 25 24 24 25
4 4 4 2 3 3 4 4 4 6 7 2 6 5 6 7 13 13 13 17 14 15 15 12 13 14 16 18 19 20 20 20 22 24 25 26 26 26
5 4 5 4 3 3 3 3 5 5 8 10 5 8 10 8 8 8 11 11 11 13 15 14 15 15 14 13 15 17 18 20 21 23 25 26 28 27
6 5 6 4 5 4 4 5 5 5 5 12 8 6 6 8 8 9 7 8 7 11 13 15 18 15 13 12 13 12 13 15 17 20 23 25 27 28
6 6 6 5 5 4 4 4 4 6 7 7 10 6 5 6 6 7 7 7 5 13 12 14 16 13 12 12 9 10 9 13 18 19 19 22 26 30
6 6 6 6 6 6 6 5 6 7 5 5 8 9 8 7 6 6 6 3 5 4 9 11 10 10 12 12 10 7 11 14 15 18 17 17 21 28
6 6 7 9 13 11 6 6 7 6 5 7 7 7 9 7 7 7 7 7 5 4 3 3 2 4 7 10 7 6 9 14 13 15 17 19 19 24
7 7 7 11 11 16 17 18 13 6 8 6 6 7 8 7 4 6 7 6 5 1 6 8 4 8 7 3 3 5 7 12 13 15 17 20 20 22
7 7 6 6 10 7 12 16 15 15 15 7 9 8 7 5 7 8 7 6 6 8 9 8 5 7 7 6 4 3 6 10 12 13 17 19 18 19
8 8 8 8 8 9 8 8 8 7 7 5 6 7 6 6 8 9 7 7 7 7 5 6 6 8 7 4 10 6 7 11 12 12 15 18 17 16
8 9 9 9 14 17 9 10 8 7 8 11 13 13 14 12 11 6 4 4 4 6 2 3 2 5 4 5 1 5 7 8 13 13 13 16 17 13
8 8 17 14 17 17 10 9 9 8 5 4 4 7 6 6 10 5 3 4 2 4 1 3 3 3 4 2 2 2 3 7 11 11 13 13 16 5
7 7 6 17 20 20 20 9 11 6 7 6 4 4 4 4 3 3 4 4 3 5 5 2 2 2 2 3 3 2 3 4 4 5 11 13 13 11
8 8 9 18 20 20 16 19 18 14 4 4 3 4 4 3 3 4 5 4 5 8 6 5 3 2 2 3 4 3 4 3 3 5 5 9 9 10
6 11 22 22 21 17 22 20 17 6 4 4 5 5 3 4 2 2 3 4 5 6 9 6 6 5 3 4 5 5 7 3 3 2 5 5 5 3
12 11 12 14 19 15 13 12 7 5 5 6 5 4 2 2 2 2 2 2 2 4 4 7 6 5 4 5 5 7 4 3 4 3 3 3 4 4
16 11 6 6 5 7 7 7 6 5 6 5 5 4 4 3 3 2 2 1 4 3 2 3 3 5 6 7 7 6 4 3 2 1 2 3 2 3
12 10 10 9 9 8 8 8 7 11 8 7 6 6 5 4 3 2 2 3 4 4 2 2 2 3 3 4 12 5 2 2 2 2 0 2 2 3
9 10 10 10 10 9 9 8 8 8 8 7 7 6 5 4 6 4 5 4 3 2 3 2 2 2 2 4 3 11 3 2 1 2 2 2 2 3
8 9 10 10 9 9 8 9 8 7 7 7 6 6 5 5 5 5 3 4 3 2 2 1 2 3 3 3 2 3 9 4 2 2 2 2 3 6
8 9 10 10 10 9 9 9 9 8 8 6 7 6 6 4 5 4 4 9 8 3 2 2 3 6 1 0 2 2 3 8 8 3 2 2 2 2
9 9 9 9 10 9 9 8 7 8 7 6 6 6 6 5 5 4 4 3 3 3 3 2 3 0 1 3 3 3 2 2 3 7 8 7 2 1
9 9 9 9 9 9 9 8 8 7 7 7 7 6 6 6 5 4 4 3 3 2 2 2 1 1 2 2 4 2 2 2 1 2 2 4 5 10
Wind_Direction
326 316 270 270 280 286 280 279 286 301 301 292 306 313 303 303 295 289 284 287 293 299 303 305 306 304 300 295 289 287 285 283 279 277 272 269 270 268
257 256 289 278 293 315 315 318 297 288 286 335 292 287 295 298 285 279 279 283 284 287 292 289 286 289 292 294 294 288 284 281 281 279 275 272 271 268
261 252 268 298 259 266 283 280 274 272 279 290 301 306 299 275 283 268 285 275 271 279 289 289 286 292 295 293 286 283 285 285 286 283 277 273 270 269
255 260 259 269 264 260 253 252 254 250 261 281 290 292 279 286 281 292 283 266 261 273 280 285 286 292 298 304 304 302 306 308 300 289 279 275 273 269
256 254 254 254 261 258 252 256 260 267 254 270 286 281 284 285 283 280 274 275 268 273 279 281 286 299 297 307 327 336 337 327 315 297 284 282 280 276
249 247 248 245 252 250 257 251 260 270 263 277 293 301 302 305 288 295 309 301 285 261 271 268 285 307 305 305 310 320 322 324 330 330 321 303 294 284
246 240 240 242 255 255 258 253 250 262 277 281 280 289 301 308 313 309 297 300 289 264 266 284 311 300 293 287 270 290 323 321 331 333 329 320 311 300
249 245 244 256 264 269 265 260 254 263 271 281 284 280 293 301 321 330 316 314 310 11 343 304 299 296 289 272 264 324 332 318 326 336 338 329 332 343
241 248 251 249 253 252 268 269 269 268 266 268 276 280 292 326 317 306 300 304 296 302 312 292 292 285 290 284 241 325 331 333 332 343 347 340 340 353
233 238 238 246 234 251 255 255 248 245 254 244 253 269 275 298 295 295 296 296 286 286 282 283 314 303 310 306 276 271 321 321 326 345 352 345 350 350
249 243 231 241 239 250 251 255 256 241 238 246 268 276 282 288 294 295 284 296 296 302 16 295 314 310 301 302 12 344 340 323 330 336 356 352 355 350
266 252 253 248 247 247 241 241 252 244 212 241 265 273 276 285 288 271 273 272 291 298 63 332 335 358 321 325 338 352 335 342 339 338 340 357 360 4
283 282 259 255 261 254 240 221 235 236 232 235 224 234 253 269 260 249 231 233 241 247 279 356 304 295 241 305 312 341 356 343 333 322 341 343 353 8
280 279 272 269 266 262 252 241 242 246 213 204 217 229 234 244 250 240 236 235 235 251 273 262 260 253 281 286 271 336 329 325 331 322 339 333 343 9
281 277 290 286 267 266 259 247 241 235 211 210 230 234 197 213 219 283 266 256 255 251 263 226 240 246 239 256 290 308 323 312 318 313 328 338 330 333
286 281 271 277 282 256 252 247 238 213 217 234 237 220 185 185 204 191 208 252 260 270 267 221 223 221 249 246 258 281 263 279 325 332 305 317 327 335
306 301 273 259 258 252 244 226 228 222 224 216 215 209 210 195 210 189 199 230 247 254 289 295 259 233 239 251 270 262 263 260 276 271 310 319 302 332
292 286 285 269 252 250 243 241 225 232 228 216 216 210 210 197 203 218 182 206 240 253 251 258 290 342 334 275 228 253 247 250 254 262 298 275 291 296
281 280 277 277 253 237 232 231 236 227 214 206 209 204 193 189 220 210 226 235 243 235 241 225 200 191 232 269 279 213 232 239 286 290 244 256 272 277
272 277 287 285 268 248 233 227 225 221 210 206 204 195 189 184 201 217 203 207 223 246 266 273 200 203 222 222 243 270 227 247 241 260 282 290 265 298
271 272 285 282 278 267 242 232 223 214 207 195 196 194 185 168 202 196 206 226 226 198 219 238 233 270 234 298 294 267 275 245 226 200 235 283 303 317
269 265 276 274 278 267 258 233 222 216 208 193 190 187 180 178 187 187 190 202 220 207 225 249 285 23 181 223 250 252 286 299 303 282 270 229 178 293
267 266 273 275 271 266 262 234 219 212 202 188 185 184 169 180 182 180 191 199 191 225 225 273 293 88 244 219 246 235 261 275 286 328 328 335 278 253